Details for EasyJet at EGNT




Go Back


Latest METAR
Local Time

EGNT 181320Z 24020G32KT 200V260 9999 FEW022 20/10 Q0998
18/09/2018, 14:33:24

Description
Results
EasyJet Logo
Number of Pilots based at EGNT
1 Pilots Based here
Number of EasyJet Flights Departed from EGNT
3 Flights Departed
Number of EasyJet Flights Arrived at EGNT
4 Flights Arrived
Number of EasyJet Schedules Departing from EGNT
41 Schedules
Number of EasyJet Schedules Arriving at EGNT
43 Schedules
Number of EasyJet Schedules Departing from EGNT availible today
11 Schedules Today
Number of EasyJet Schedules Arriving at EGNT availible today
11 Schedules Today
Average Landing Rate at EGNT
-258 fpm
EasyJet Average Landing Rate at EGNT
-265 fpm
Total Fuel Purchased at EGNT by EasyJet
6,593.42 kgs / 14,535.85 lbs

Pilots Based at EGNT


Pilot ID
Pilot Name
Pilot Rank
No. of Flights
No. of Flying Hours
Michael Gow
121
369.02
Content